Location: Bletchingley
(51.2333°N, 0.1000°W)
Time: 16:30:20
(UTC+00:00)

USA 234 - Pass Details

Date: 18 September 2020
Orbit: 1102 x 1106 km, 123.0° (Epoch: 16 October)

Event Time Altitude Azimuth Distance (km) Brightness Sun altitude
Rises 22:00:40 0° 63° (ENE) 3,926 6.1 -32.1°
Reaches altitude 10° 22:03:10 10° 61° (ENE) 2,967 5.5 -32.3°
Enters shadow 22:03:22 11° 61° (ENE) 2,892 5.4 -32.3°
Exits shadow 22:06:55 37° 53° (NE) 1,643 4.1 -32.6°
Maximum altitude 22:09:41 72° 339° (NNW) 1,156 3.3 -32.9°
Drops below altitude 10° 22:16:12 10° 256° (WSW) 2,963 5.7 -33.4°
Sets 22:18:40 0° 255° (WSW) 3,920 6.3 -33.6°
